Time,TemperatureF,DewpointF,PressureIn,WindDirection,WindDirectionDegrees,WindSpeedMPH,WindSpeedGustMPH,Humidity,HourlyPrecipIn,Conditions,Clouds,dailyrainin,SoftwareType,DateUTC
2013-08-27 00:01:00,71.8,68.7,30.07,NNE,28,0.0,0.0,90,0.00,,,0.00,VWS V13.01,2013-08-27 05:01:00,
2013-08-27 00:06:00,71.6,68.9,30.07,NNE,28,0.0,0.0,91,0.00,,,0.00,VWS V13.01,2013-08-27 05:06:00,
2013-08-27 00:11:00,71.6,68.9,30.07,NNE,28,0.0,0.0,91,0.00,,,0.00,VWS V13.01,2013-08-27 05:11:00,
2013-08-27 00:16:00,71.5,68.7,30.07,NNE,28,0.0,0.0,91,0.00,,,0.00,VWS V13.01,2013-08-27 05:16:00,
2013-08-27 00:21:00,71.5,68.7,30.07,NNE,28,0.0,0.0,91,0.00,,,0.00,VWS V13.01,2013-08-27 05:21:00,
2013-08-27 00:26:00,71.3,68.8,30.07,NNE,28,0.0,0.0,92,0.00,,,0.00,VWS V13.01,2013-08-27 05:26:00,
2013-08-27 00:31:00,71.1,69.0,30.07,NNE,28,0.0,0.0,93,0.00,,,0.00,VWS V13.01,2013-08-27 05:31:00,
2013-08-27 00:36:00,71.1,69.0,30.07,NNE,28,0.0,0.0,93,0.00,,,0.00,VWS V13.01,2013-08-27 05:36:00,
2013-08-27 00:41:00,70.9,69.4,30.07,NNE,28,0.0,0.0,95,0.00,,,0.00,VWS V13.01,2013-08-27 05:41:00,
2013-08-27 00:46:00,70.9,69.4,30.07,NNE,28,0.0,0.0,95,0.00,,,0.00,VWS V13.01,2013-08-27 05:46:00,
2013-08-27 00:51:00,70.7,69.6,30.07,NNE,28,0.0,0.0,96,0.00,,,0.00,VWS V13.01,2013-08-27 05:51:00,
2013-08-27 00:56:00,70.6,69.4,30.07,NNE,28,0.0,0.0,96,0.00,,,0.00,VWS V13.01,2013-08-27 05:56:00,
2013-08-27 01:01:00,70.6,70.0,30.07,NNE,28,0.0,0.0,98,0.00,,,0.00,VWS V13.01,2013-08-27 06:01:00,
2013-08-27 01:06:00,70.4,69.8,30.07,NNE,28,0.0,0.0,98,0.00,,,0.00,VWS V13.01,2013-08-27 06:06:00,
2013-08-27 01:11:00,70.2,69.9,30.07,NNE,27,0.0,0.0,99,0.00,,,0.00,VWS V13.01,2013-08-27 06:11:00,
2013-08-27 01:16:00,70.2,69.9,30.07,NNE,31,0.0,0.0,99,0.00,,,0.00,VWS V13.01,2013-08-27 06:16:00,
2013-08-27 01:21:00,70.2,70.2,30.07,NNE,31,0.0,0.0,100,0.00,,,0.00,VWS V13.01,2013-08-27 06:21:00,
2013-08-27 01:26:00,70.2,70.2,30.07,NNE,31,0.0,0.0,100,0.00,,,0.00,VWS V13.01,2013-08-27 06:26:00,
2013-08-27 01:31:00,70.2,70.2,30.07,NNE,31,0.0,0.0,100,0.00,,,0.00,VWS V13.01,2013-08-27 06:31:00,
2013-08-27 01:36:00,70.2,70.2,30.07,NE,37,2.7,3.1,100,0.00,,,0.00,VWS V13.01,2013-08-27 06:36:00,
2013-08-27 01:41:00,70.2,70.2,30.07,NE,37,0.0,0.0,100,0.00,,,0.00,VWS V13.01,2013-08-27 06:41:00,
2013-08-27 01:46:00,70.2,70.2,30.07,NE,36,0.0,0.0,100,0.00,,,0.00,VWS V13.01,2013-08-27 06:46:00,
2013-08-27 01:50:00,70.2,70.2,30.07,NE,37,0.0,0.0,100,0.00,,,0.00,VWS V13.01,2013-08-27 06:50:00,
2013-08-27 01:55:00,70.2,69.9,30.07,NE,36,2.7,3.6,99,0.00,,,0.00,VWS V13.01,2013-08-27 06:55:00,
2013-08-27 02:00:00,70.4,69.8,30.07,NE,36,2.7,3.6,98,0.00,,,0.00,VWS V13.01,2013-08-27 07:00:00,
2013-08-27 02:05:00,70.2,69.6,30.07,NE,37,3.1,3.1,98,0.00,,,0.00,VWS V13.01,2013-08-27 07:05:00,
2013-08-27 02:10:00,70.2,69.6,30.07,NE,37,2.7,2.7,98,0.00,,,0.00,VWS V13.01,2013-08-27 07:10:00,
2013-08-27 02:15:00,70.2,69.6,30.07,NNE,22,2.2,2.2,98,0.00,,,0.00,VWS V13.01,2013-08-27 07:15:00,
2013-08-27 02:20:00,70.2,69.3,30.07,NNE,33,2.7,2.7,97,0.00,,,0.00,VWS V13.01,2013-08-27 07:20:00,
2013-08-27 02:25:00,70.2,69.0,30.07,NNE,33,0.0,2.2,96,0.00,,,0.00,VWS V13.01,2013-08-27 07:25:00,
2013-08-27 02:30:00,70.4,68.9,30.07,NNE,33,0.0,0.0,95,0.00,,,0.00,VWS V13.01,2013-08-27 07:30:00,
2013-08-27 02:35:00,70.4,68.9,30.07,NNE,12,0.0,0.0,95,0.00,,,0.00,VWS V13.01,2013-08-27 07:35:00,
2013-08-27 02:40:00,70.4,68.6,30.07,NNE,23,0.0,0.0,94,0.00,,,0.00,VWS V13.01,2013-08-27 07:40:00,
2013-08-27 02:45:00,70.2,68.1,30.07,NNE,23,0.0,0.0,93,0.00,,,0.00,VWS V13.01,2013-08-27 07:45:00,
2013-08-27 02:50:00,70.2,68.4,30.07,NNE,20,2.7,2.7,94,0.00,,,0.00,VWS V13.01,2013-08-27 07:50:00,
2013-08-27 02:55:00,70.2,68.4,30.07,NNE,26,0.0,2.2,94,0.00,,,0.00,VWS V13.01,2013-08-27 07:55:00,
2013-08-27 03:00:00,70.4,68.3,30.07,NNE,26,0.0,0.0,93,0.00,,,0.00,VWS V13.01,2013-08-27 08:00:00,
2013-08-27 03:05:00,70.2,68.1,30.07,NNE,32,3.1,3.1,93,0.00,,,0.00,VWS V13.01,2013-08-27 08:05:00,
2013-08-27 03:10:00,70.2,68.1,30.07,NNE,33,2.2,2.7,93,0.00,,,0.00,VWS V13.01,2013-08-27 08:10:00,
2013-08-27 03:15:00,70.2,68.1,30.07,NE,35,2.2,2.2,93,0.00,,,0.00,VWS V13.01,2013-08-27 08:15:00,
2013-08-27 03:20:00,70.0,67.9,30.07,NE,35,0.0,0.0,93,0.00,,,0.00,VWS V13.01,2013-08-27 08:20:00,
2013-08-27 03:25:00,70.0,67.9,30.07,NE,35,2.2,2.7,93,0.00,,,0.00,VWS V13.01,2013-08-27 08:25:00,
2013-08-27 03:30:00,70.0,67.6,30.07,NE,35,0.0,0.0,92,0.00,,,0.00,VWS V13.01,2013-08-27 08:30:00,
2013-08-27 03:35:00,70.0,67.6,30.07,NE,35,0.0,0.0,92,0.00,,,0.00,VWS V13.01,2013-08-27 08:35:00,
2013-08-27 03:40:00,69.8,67.4,30.07,NE,35,0.0,0.0,92,0.00,,,0.00,VWS V13.01,2013-08-27 08:40:00,
2013-08-27 03:45:00,69.7,67.2,30.07,NE,35,0.0,0.0,92,0.00,,,0.00,VWS V13.01,2013-08-27 08:45:00,
2013-08-27 03:50:00,69.5,67.4,30.07,NE,35,0.0,0.0,93,0.00,,,0.00,VWS V13.01,2013-08-27 08:50:00,
2013-08-27 03:55:00,69.5,67.4,30.07,NE,35,0.0,0.0,93,0.00,,,0.00,VWS V13.01,2013-08-27 08:55:00,
2013-08-27 04:00:00,69.3,67.2,30.07,NE,35,0.0,0.0,93,0.00,,,0.00,VWS V13.01,2013-08-27 09:00:00,
2013-08-27 04:05:00,69.1,67.3,30.07,NE,35,0.0,0.0,94,0.00,,,0.00,VWS V13.01,2013-08-27 09:05:00,
2013-08-27 04:10:00,68.9,67.4,30.07,NE,35,0.0,0.0,95,0.00,,,0.00,VWS V13.01,2013-08-27 09:10:00,
2013-08-27 04:15:00,68.9,67.4,30.07,NE,35,0.0,0.0,95,0.00,,,0.00,VWS V13.01,2013-08-27 09:15:00,
2013-08-27 04:20:00,68.8,67.6,30.07,NE,35,0.0,0.0,96,0.00,,,0.00,VWS V13.01,2013-08-27 09:20:00,
2013-08-27 04:25:00,68.8,68.8,30.07,NE,43,2.2,2.2,100,0.00,,,0.00,VWS V13.01,2013-08-27 09:25:00,
2013-08-27 04:30:00,68.6,68.6,30.07,NNE,30,2.2,2.2,100,0.00,,,0.00,VWS V13.01,2013-08-27 09:30:00,
2013-08-27 04:35:00,68.6,68.6,30.07,NNE,32,3.1,3.6,100,0.00,,,0.00,VWS V13.01,2013-08-27 09:35:00,
2013-08-27 04:40:00,68.4,68.4,30.07,NE,35,0.0,0.0,100,0.00,,,0.00,VWS V13.01,2013-08-27 09:40:00,
2013-08-27 04:45:00,68.4,68.4,30.07,NE,35,0.0,0.0,100,0.00,,,0.00,VWS V13.01,2013-08-27 09:45:00,
2013-08-27 04:50:00,68.4,68.4,30.07,NE,35,0.0,0.0,100,0.00,,,0.00,VWS V13.01,2013-08-27 09:50:00,
2013-08-27 04:55:00,68.4,68.4,30.07,NE,34,0.0,0.0,100,0.00,,,0.00,VWS V13.01,2013-08-27 09:55:00,
2013-08-27 05:00:00,68.6,68.6,30.07,NE,35,0.0,0.0,100,0.00,,,0.00,VWS V13.01,2013-08-27 10:00:00,
2013-08-27 05:05:00,68.6,68.6,30.07,NE,35,0.0,0.0,100,0.00,,,0.00,VWS V13.01,2013-08-27 10:05:00,
2013-08-27 05:10:00,68.6,68.6,30.07,NE,35,0.0,0.0,100,0.00,,,0.00,VWS V13.01,2013-08-27 10:10:00,
2013-08-27 05:15:00,68.6,68.6,30.07,NE,35,0.0,0.0,100,0.00,,,0.00,VWS V13.01,2013-08-27 10:15:00,
2013-08-27 05:20:00,68.4,68.1,30.07,NE,35,0.0,0.0,99,0.00,,,0.00,VWS V13.01,2013-08-27 10:20:00,
2013-08-27 05:25:00,68.4,68.1,30.07,NE,35,0.0,0.0,99,0.00,,,0.00,VWS V13.01,2013-08-27 10:25:00,
2013-08-27 05:30:00,68.2,67.9,30.07,NE,35,0.0,0.0,99,0.00,,,0.00,VWS V13.01,2013-08-27 10:30:00,
2013-08-27 05:35:00,67.9,67.3,30.07,NE,35,0.0,0.0,98,0.00,,,0.00,VWS V13.01,2013-08-27 10:35:00,
2013-08-27 05:40:00,67.7,67.4,30.07,NE,35,0.0,0.0,99,0.00,,,0.00,VWS V13.01,2013-08-27 10:40:00,
2013-08-27 05:45:00,67.7,67.4,30.07,NE,35,0.0,0.0,99,0.00,,,0.00,VWS V13.01,2013-08-27 10:45:00,
2013-08-27 05:50:00,67.5,67.2,30.07,NE,35,0.0,0.0,99,0.00,,,0.00,VWS V13.01,2013-08-27 10:50:00,
2013-08-27 05:55:00,67.5,67.5,30.07,NE,35,0.0,0.0,100,0.00,,,0.00,VWS V13.01,2013-08-27 10:55:00,
2013-08-27 06:00:00,67.3,67.3,30.07,NE,35,0.0,0.0,100,0.00,,,0.00,VWS V13.01,2013-08-27 11:00:00,
2013-08-27 06:05:00,67.1,67.1,30.07,NE,35,0.0,0.0,100,0.00,,,0.00,VWS V13.01,2013-08-27 11:05:00,
2013-08-27 06:10:00,67.0,67.0,30.07,NE,35,0.0,0.0,100,0.00,,,0.00,VWS V13.01,2013-08-27 11:10:00,
2013-08-27 06:15:00,66.8,66.8,30.07,NE,35,0.0,0.0,100,0.00,,,0.00,VWS V13.01,2013-08-27 11:15:00,
2013-08-27 06:20:00,66.8,66.8,30.07,NE,35,0.0,0.0,100,0.00,,,0.00,VWS V13.01,2013-08-27 11:20:00,
2013-08-27 06:25:00,66.8,66.8,30.07,NE,35,0.0,0.0,100,0.00,,,0.00,VWS V13.01,2013-08-27 11:25:00,
2013-08-27 06:30:00,66.8,66.8,30.07,NE,35,0.0,0.0,100,0.00,,,0.00,VWS V13.01,2013-08-27 11:30:00,
2013-08-27 06:35:00,66.8,66.8,30.07,NE,35,0.0,0.0,100,0.00,,,0.00,VWS V13.01,2013-08-27 11:35:00,
2013-08-27 06:40:00,66.6,66.6,30.07,NE,35,0.0,0.0,100,0.00,,,0.00,VWS V13.01,2013-08-27 11:40:00,
2013-08-27 06:45:00,66.6,66.6,30.07,NE,35,0.0,0.0,100,0.00,,,0.00,VWS V13.01,2013-08-27 11:45:00,
2013-08-27 06:50:00,66.6,66.6,30.07,NE,35,0.0,0.0,100,0.00,,,0.00,VWS V13.01,2013-08-27 11:50:00,
2013-08-27 06:55:00,66.8,66.8,30.07,NE,35,0.0,0.0,100,0.00,,,0.00,VWS V13.01,2013-08-27 11:55:00,
2013-08-27 07:00:00,66.6,66.6,30.10,NE,35,0.0,0.0,100,0.00,,,0.00,VWS V13.01,2013-08-27 12:00:00,
2013-08-27 07:05:00,66.6,66.6,30.10,NE,35,0.0,0.0,100,0.00,,,0.00,VWS V13.01,2013-08-27 12:05:00,
2013-08-27 07:10:00,66.6,66.6,30.10,NE,35,0.0,0.0,100,0.00,,,0.00,VWS V13.01,2013-08-27 12:10:00,
2013-08-27 07:15:00,66.6,66.6,30.10,NE,35,0.0,0.0,100,0.00,,,0.00,VWS V13.01,2013-08-27 12:15:00,
2013-08-27 07:20:00,66.6,66.6,30.10,NE,35,0.0,0.0,100,0.00,,,0.00,VWS V13.01,2013-08-27 12:20:00,
2013-08-27 07:25:00,66.8,66.8,30.10,NE,35,0.0,0.0,100,0.00,,,0.00,VWS V13.01,2013-08-27 12:25:00,
2013-08-27 07:29:00,66.8,66.8,30.10,NE,35,0.0,0.0,100,0.00,,,0.00,VWS V13.01,2013-08-27 12:29:00,
2013-08-27 07:34:00,67.1,67.1,30.10,NE,35,0.0,0.0,100,0.00,,,0.00,VWS V13.01,2013-08-27 12:34:00,
2013-08-27 07:39:00,67.3,67.3,30.10,NE,35,0.0,0.0,100,0.00,,,0.00,VWS V13.01,2013-08-27 12:39:00,
2013-08-27 07:44:00,67.5,67.5,30.10,NE,35,0.0,0.0,100,0.00,,,0.00,VWS V13.01,2013-08-27 12:44:00,
2013-08-27 07:49:00,67.7,67.7,30.10,NE,35,0.0,0.0,100,0.00,,,0.00,VWS V13.01,2013-08-27 12:49:00,
2013-08-27 07:54:00,67.9,67.9,30.10,NE,35,0.0,0.0,100,0.00,,,0.00,VWS V13.01,2013-08-27 12:54:00,
2013-08-27 07:59:00,68.2,68.2,30.10,NE,35,0.0,0.0,100,0.00,,,0.00,VWS V13.01,2013-08-27 12:59:00,
2013-08-27 08:04:00,68.8,68.8,30.10,NE,35,0.0,0.0,100,0.00,,,0.00,VWS V13.01,2013-08-27 13:04:00,
2013-08-27 08:09:00,69.3,69.3,30.10,NE,35,0.0,0.0,100,0.00,,,0.00,VWS V13.01,2013-08-27 13:09:00,
2013-08-27 08:14:00,70.2,70.2,30.10,NE,35,0.0,0.0,100,0.00,,,0.00,VWS V13.01,2013-08-27 13:14:00,
2013-08-27 08:19:00,71.5,71.5,30.10,NE,35,0.0,0.0,100,0.00,,,0.00,VWS V13.01,2013-08-27 13:19:00,
2013-08-27 08:24:00,72.2,72.2,30.10,NNE,18,0.0,0.0,100,0.00,,,0.00,VWS V13.01,2013-08-27 13:24:00,
2013-08-27 08:29:00,73.6,68.5,30.10,NNE,21,0.0,0.0,84,0.00,,,0.00,VWS V13.01,2013-08-27 13:29:00,
2013-08-27 08:34:00,74.5,68.7,30.10,NNE,27,0.0,0.0,82,0.00,,,0.00,VWS V13.01,2013-08-27 13:34:00,
2013-08-27 08:39:00,75.6,69.7,30.10,NE,43,0.0,0.0,82,0.00,,,0.00,VWS V13.01,2013-08-27 13:39:00,
2013-08-27 08:44:00,76.5,68.4,30.10,NNE,17,0.0,0.0,76,0.00,,,0.00,VWS V13.01,2013-08-27 13:44:00,
2013-08-27 08:49:00,77.0,68.5,30.10,NNE,17,0.0,0.0,75,0.00,,,0.00,VWS V13.01,2013-08-27 13:49:00,
2013-08-27 08:54:00,77.2,68.7,30.10,NNE,17,0.0,0.0,75,0.00,,,0.00,VWS V13.01,2013-08-27 13:54:00,
2013-08-27 08:59:00,77.4,68.9,30.10,SSE,156,0.0,0.0,75,0.00,,,0.00,VWS V13.01,2013-08-27 13:59:00,
2013-08-27 09:04:00,77.4,67.3,30.10,SE,127,3.6,3.6,71,0.00,,,0.00,VWS V13.01,2013-08-27 14:04:00,
2013-08-27 09:09:00,77.4,67.3,30.10,East,88,4.9,4.9,71,0.00,,,0.00,VWS V13.01,2013-08-27 14:09:00,
2013-08-27 09:14:00,77.8,67.2,30.10,ENE,70,2.7,3.1,70,0.00,,,0.00,VWS V13.01,2013-08-27 14:14:00,
2013-08-27 09:19:00,78.3,67.3,30.10,ESE,113,2.2,3.1,69,0.00,,,0.00,VWS V13.01,2013-08-27 14:19:00,
2013-08-27 09:24:00,78.8,68.2,30.10,ESE,116,4.0,4.0,70,0.00,,,0.00,VWS V13.01,2013-08-27 14:24:00,
2013-08-27 09:29:00,78.8,67.4,30.10,East,93,2.2,2.2,68,0.00,,,0.00,VWS V13.01,2013-08-27 14:29:00,
2013-08-27 09:34:00,79.0,67.1,30.10,NE,55,3.1,3.1,67,0.00,,,0.00,VWS V13.01,2013-08-27 14:34:00,
2013-08-27 09:39:00,79.2,66.9,30.10,ESE,116,4.0,4.5,66,0.00,,,0.00,VWS V13.01,2013-08-27 14:39:00,
2013-08-27 09:44:00,79.4,67.0,30.10,ENE,69,4.0,4.0,66,0.00,,,0.00,VWS V13.01,2013-08-27 14:44:00,
2013-08-27 09:49:00,79.9,68.4,30.10,SE,135,2.7,2.7,68,0.00,,,0.00,VWS V13.01,2013-08-27 14:49:00,
2013-08-27 09:54:00,79.9,67.1,30.10,ESE,120,2.7,3.6,65,0.00,,,0.00,VWS V13.01,2013-08-27 14:54:00,
2013-08-27 09:59:00,79.9,67.1,30.10,East,95,2.2,2.2,65,0.00,,,0.00,VWS V13.01,2013-08-27 14:59:00,
2013-08-27 10:04:00,80.6,67.8,30.10,ENE,76,2.7,3.1,65,0.00,,,0.00,VWS V13.01,2013-08-27 15:04:00,
2013-08-27 10:09:00,81.9,67.6,30.10,NNE,13,2.7,3.6,62,0.00,,,0.00,VWS V13.01,2013-08-27 15:09:00,
2013-08-27 10:14:00,81.9,67.1,30.10,SSE,156,3.6,5.4,61,0.00,,,0.00,VWS V13.01,2013-08-27 15:14:00,
2013-08-27 10:19:00,81.5,67.3,30.10,ESE,112,4.0,5.4,62,0.00,,,0.00,VWS V13.01,2013-08-27 15:19:00,
2013-08-27 10:24:00,81.7,67.4,30.10,East,101,2.7,2.7,62,0.00,,,0.00,VWS V13.01,2013-08-27 15:24:00,
2013-08-27 10:29:00,82.1,67.3,30.10,East,98,3.6,3.6,61,0.00,,,0.00,VWS V13.01,2013-08-27 15:29:00,
2013-08-27 10:34:00,82.6,67.8,30.10,ESE,107,0.0,2.7,61,0.00,,,0.00,VWS V13.01,2013-08-27 15:34:00,
2013-08-27 10:39:00,83.3,67.5,30.10,NE,39,4.9,4.9,59,0.00,,,0.00,VWS V13.01,2013-08-27 15:39:00,
2013-08-27 10:44:00,83.9,68.5,30.10,ENE,68,2.7,2.7,60,0.00,,,0.00,VWS V13.01,2013-08-27 15:44:00,
2013-08-27 10:49:00,84.2,68.4,30.10,SE,132,3.6,4.0,59,0.00,,,0.00,VWS V13.01,2013-08-27 15:49:00,
2013-08-27 10:54:00,84.2,67.9,30.10,NE,40,0.0,2.2,58,0.00,,,0.00,VWS V13.01,2013-08-27 15:54:00,
2013-08-27 10:59:00,84.2,67.9,30.10,ESE,115,3.1,3.1,58,0.00,,,0.00,VWS V13.01,2013-08-27 15:59:00,
2013-08-27 11:04:00,83.7,67.4,30.10,WNW,291,3.1,3.6,58,0.00,,,0.00,VWS V13.01,2013-08-27 16:04:00,
2013-08-27 11:09:00,84.1,68.2,30.10,NE,54,2.2,2.7,59,0.00,,,0.00,VWS V13.01,2013-08-27 16:09:00,
2013-08-27 11:14:00,84.8,68.4,30.10,NW,321,3.1,3.6,58,0.00,,,0.00,VWS V13.01,2013-08-27 16:14:00,
2013-08-27 11:19:00,85.3,68.9,30.10,SSE,147,3.1,5.4,58,0.00,,,0.00,VWS V13.01,2013-08-27 16:19:00,
2013-08-27 11:24:00,85.0,68.5,30.10,South,180,3.1,5.4,58,0.00,,,0.00,VWS V13.01,2013-08-27 16:24:00,
2013-08-27 11:29:00,84.2,67.9,30.10,WNW,295,4.0,5.4,58,0.00,,,0.00,VWS V13.01,2013-08-27 16:29:00,
2013-08-27 11:34:00,84.8,69.4,30.10,South,173,4.0,4.0,60,0.00,,,0.00,VWS V13.01,2013-08-27 16:34:00,
2013-08-27 11:39:00,84.8,68.4,30.10,South,173,5.4,5.4,58,0.00,,,0.00,VWS V13.01,2013-08-27 16:39:00,
2013-08-27 11:44:00,84.6,68.7,30.10,East,88,2.2,2.7,59,0.00,,,0.00,VWS V13.01,2013-08-27 16:44:00,
2013-08-27 11:49:00,85.5,69.6,30.10,SW,233,4.0,4.0,59,0.00,,,0.00,VWS V13.01,2013-08-27 16:49:00,
2013-08-27 11:54:00,85.5,69.1,30.10,WSW,237,3.6,4.0,58,0.00,,,0.00,VWS V13.01,2013-08-27 16:54:00,
2013-08-27 11:59:00,85.5,68.5,30.10,ESE,114,0.0,0.0,57,0.00,,,0.00,VWS V13.01,2013-08-27 16:59:00,
2013-08-27 12:04:00,86.0,69.0,30.10,SSE,160,2.7,5.8,57,0.00,,,0.00,VWS V13.01,2013-08-27 17:04:00,
2013-08-27 12:09:00,85.9,69.4,30.10,SSE,150,3.6,4.9,58,0.00,,,0.00,VWS V13.01,2013-08-27 17:09:00,
2013-08-27 12:14:00,86.0,69.0,30.10,SSE,157,3.6,4.9,57,0.00,,,0.00,VWS V13.01,2013-08-27 17:14:00,
2013-08-27 12:19:00,86.6,70.1,30.10,WNW,290,3.1,3.1,58,0.00,,,0.00,VWS V13.01,2013-08-27 17:19:00,
2013-08-27 12:24:00,87.3,70.2,30.10,SSE,162,3.1,4.0,57,0.00,,,0.00,VWS V13.01,2013-08-27 17:24:00,
2013-08-27 12:29:00,87.7,70.6,30.10,South,170,5.8,5.8,57,0.00,,,0.00,VWS V13.01,2013-08-27 17:29:00,
2013-08-27 12:34:00,87.1,69.5,30.10,SSE,147,4.0,4.0,56,0.00,,,0.00,VWS V13.01,2013-08-27 17:34:00,
2013-08-27 12:39:00,86.9,69.9,30.10,South,183,5.8,5.8,57,0.00,,,0.00,VWS V13.01,2013-08-27 17:39:00,
2013-08-27 12:44:00,86.8,70.2,30.07,SW,222,4.0,4.0,58,0.00,,,0.00,VWS V13.01,2013-08-27 17:44:00,
2013-08-27 12:49:00,87.1,70.1,30.07,WSW,255,2.7,3.1,57,0.00,,,0.00,VWS V13.01,2013-08-27 17:49:00,
2013-08-27 12:54:00,87.5,70.4,30.07,West,273,2.7,2.7,57,0.00,,,0.00,VWS V13.01,2013-08-27 17:54:00,
2013-08-27 12:58:00,87.8,70.7,30.07,SSE,166,3.6,4.0,57,0.00,,,0.00,VWS V13.01,2013-08-27 17:58:00,
2013-08-27 13:03:00,88.0,70.4,30.07,South,191,4.0,4.0,56,0.00,,,0.00,VWS V13.01,2013-08-27 18:03:00,
2013-08-27 13:08:00,88.0,70.4,30.07,SSW,196,4.0,6.3,56,0.00,,,0.00,VWS V13.01,2013-08-27 18:08:00,
2013-08-27 13:13:00,87.8,70.2,30.07,SSE,150,2.2,2.7,56,0.00,,,0.00,VWS V13.01,2013-08-27 18:13:00,
2013-08-27 13:18:00,88.2,68.9,30.07,WSW,258,2.2,3.1,53,0.00,,,0.00,VWS V13.01,2013-08-27 18:18:00,
2013-08-27 13:23:00,88.2,70.5,30.07,South,171,5.4,6.3,56,0.00,,,0.00,VWS V13.01,2013-08-27 18:23:00,
2013-08-27 13:28:00,88.4,70.2,30.07,SSE,167,2.7,4.0,55,0.00,,,0.00,VWS V13.01,2013-08-27 18:28:00,
2013-08-27 13:33:00,88.7,70.0,30.07,East,93,2.7,3.1,54,0.00,,,0.00,VWS V13.01,2013-08-27 18:33:00,
2013-08-27 13:38:00,89.1,68.6,30.07,SW,220,5.4,5.4,51,0.00,,,0.00,VWS V13.01,2013-08-27 18:38:00,
2013-08-27 13:43:00,88.9,68.5,30.07,West,269,3.6,5.4,51,0.00,,,0.00,VWS V13.01,2013-08-27 18:43:00,
2013-08-27 13:48:00,89.8,70.4,30.07,NNW,330,0.0,2.2,53,0.00,,,0.00,VWS V13.01,2013-08-27 18:48:00,
2013-08-27 13:53:00,91.4,70.2,30.07,East,97,0.0,2.2,50,0.00,,,0.00,VWS V13.01,2013-08-27 18:53:00,
2013-08-27 13:58:00,92.7,70.2,30.04,SW,229,3.1,4.0,48,0.00,,,0.00,VWS V13.01,2013-08-27 18:58:00,
2013-08-27 14:03:00,92.2,70.3,30.04,WSW,240,4.0,4.0,49,0.00,,,0.00,VWS V13.01,2013-08-27 19:03:00,
2013-08-27 14:08:00,90.5,68.8,30.04,South,176,3.6,3.6,49,0.00,,,0.00,VWS V13.01,2013-08-27 19:08:00,
2013-08-27 14:13:00,89.5,68.4,30.04,SSW,199,2.7,3.6,50,0.00,,,0.00,VWS V13.01,2013-08-27 19:13:00,
2013-08-27 14:18:00,89.5,68.4,30.04,ESE,113,3.6,4.0,50,0.00,,,0.00,VWS V13.01,2013-08-27 19:18:00,
2013-08-27 14:23:00,89.8,68.7,30.04,South,171,3.1,3.1,50,0.00,,,0.00,VWS V13.01,2013-08-27 19:23:00,
2013-08-27 14:28:00,90.2,69.0,30.04,South,178,2.2,3.1,50,0.00,,,0.00,VWS V13.01,2013-08-27 19:28:00,
2013-08-27 14:33:00,90.9,68.5,30.04,West,272,2.7,3.1,48,0.00,,,0.00,VWS V13.01,2013-08-27 19:33:00,
2013-08-27 14:38:00,91.3,68.8,30.04,NW,319,2.2,3.6,48,0.00,,,0.00,VWS V13.01,2013-08-27 19:38:00,
2013-08-27 14:43:00,91.1,68.7,30.04,North,360,2.2,2.2,48,0.00,,,0.00,VWS V13.01,2013-08-27 19:43:00,
2013-08-27 14:48:00,91.3,69.4,30.04,NNE,31,0.0,0.0,49,0.00,,,0.00,VWS V13.01,2013-08-27 19:48:00,
2013-08-27 14:53:00,92.0,69.5,30.04,ENE,68,2.7,2.7,48,0.00,,,0.00,VWS V13.01,2013-08-27 19:53:00,
2013-08-27 14:58:00,92.0,68.9,30.04,West,265,2.7,2.7,47,0.00,,,0.00,VWS V13.01,2013-08-27 19:58:00,
2013-08-27 15:03:00,91.1,68.7,30.04,WSW,238,2.2,2.2,48,0.00,,,0.00,VWS V13.01,2013-08-27 20:03:00,
2013-08-27 15:08:00,90.4,68.6,30.04,NNE,24,2.2,3.1,49,0.00,,,0.00,VWS V13.01,2013-08-27 20:08:00,
2013-08-27 15:13:00,90.7,68.9,30.04,NNE,27,0.0,0.0,49,0.00,,,0.00,VWS V13.01,2013-08-27 20:13:00,
2013-08-27 15:18:00,91.3,68.8,30.04,SSW,202,2.2,3.1,48,0.00,,,0.00,VWS V13.01,2013-08-27 20:18:00,
2013-08-27 15:23:00,91.1,69.3,30.04,ESE,108,2.7,2.7,49,0.00,,,0.00,VWS V13.01,2013-08-27 20:23:00,
2013-08-27 15:28:00,91.1,68.7,30.04,East,85,2.7,2.7,48,0.00,,,0.00,VWS V13.01,2013-08-27 20:28:00,
2013-08-27 15:33:00,91.1,69.3,30.01,East,101,3.1,3.1,49,0.00,,,0.00,VWS V13.01,2013-08-27 20:33:00,
2013-08-27 15:38:00,91.6,69.8,30.01,SSE,156,0.0,0.0,49,0.00,,,0.00,VWS V13.01,2013-08-27 20:38:00,
2013-08-27 15:43:00,92.5,70.0,30.01,ENE,60,2.2,2.2,48,0.00,,,0.00,VWS V13.01,2013-08-27 20:43:00,
2013-08-27 15:48:00,92.3,69.2,30.01,East,100,3.1,3.1,47,0.00,,,0.00,VWS V13.01,2013-08-27 20:48:00,
2013-08-27 15:53:00,91.6,69.2,30.01,ENE,77,3.6,3.6,48,0.00,,,0.00,VWS V13.01,2013-08-27 20:53:00,
2013-08-27 15:58:00,91.4,69.6,30.01,ENE,76,3.1,3.1,49,0.00,,,0.00,VWS V13.01,2013-08-27 20:58:00,
2013-08-27 16:03:00,92.2,70.9,30.01,South,170,3.1,3.6,50,0.00,,,0.00,VWS V13.01,2013-08-27 21:03:00,
2013-08-27 16:08:00,92.3,70.4,30.01,SE,134,2.7,2.7,49,0.00,,,0.00,VWS V13.01,2013-08-27 21:08:00,
2013-08-27 16:13:00,91.6,69.8,30.01,South,179,3.1,3.1,49,0.00,,,0.00,VWS V13.01,2013-08-27 21:13:00,
2013-08-27 16:18:00,90.7,68.9,30.01,SW,223,3.1,4.0,49,0.00,,,0.00,VWS V13.01,2013-08-27 21:18:00,
2013-08-27 16:23:00,90.9,69.1,30.01,ESE,112,3.1,3.6,49,0.00,,,0.00,VWS V13.01,2013-08-27 21:23:00,
2013-08-27 16:28:00,91.3,70.0,30.01,East,95,0.0,0.0,50,0.00,,,0.00,VWS V13.01,2013-08-27 21:28:00,
2013-08-27 16:33:00,92.0,69.5,30.01,SE,138,4.0,4.0,48,0.00,,,0.00,VWS V13.01,2013-08-27 21:33:00,
2013-08-27 16:38:00,91.6,69.8,30.01,East,86,2.7,2.7,49,0.00,,,0.00,VWS V13.01,2013-08-27 21:38:00,
2013-08-27 16:43:00,91.3,68.8,30.01,SE,124,3.6,3.6,48,0.00,,,0.00,VWS V13.01,2013-08-27 21:43:00,
2013-08-27 16:48:00,90.9,68.5,30.01,ESE,102,2.2,2.2,48,0.00,,,0.00,VWS V13.01,2013-08-27 21:48:00,
2013-08-27 16:53:00,91.1,69.3,30.01,SSE,158,2.7,2.7,49,0.00,,,0.00,VWS V13.01,2013-08-27 21:53:00,
2013-08-27 16:58:00,91.4,69.0,30.01,South,182,2.7,3.6,48,0.00,,,0.00,VWS V13.01,2013-08-27 21:58:00,
2013-08-27 17:03:00,91.8,69.3,30.01,NNE,28,2.2,3.1,48,0.00,,,0.00,VWS V13.01,2013-08-27 22:03:00,
2013-08-27 17:08:00,92.7,69.5,30.01,SW,218,2.2,2.2,47,0.00,,,0.00,VWS V13.01,2013-08-27 22:08:00,
2013-08-27 17:13:00,93.4,69.6,30.01,NW,307,4.0,4.9,46,0.00,,,0.00,VWS V13.01,2013-08-27 22:13:00,
2013-08-27 17:18:00,92.5,69.4,30.01,WNW,291,4.0,4.0,47,0.00,,,0.00,VWS V13.01,2013-08-27 22:18:00,
2013-08-27 17:23:00,92.0,69.5,30.01,NW,306,2.7,4.0,48,0.00,,,0.00,VWS V13.01,2013-08-27 22:23:00,
2013-08-27 17:28:00,91.8,68.7,30.01,West,279,2.7,3.6,47,0.00,,,0.00,VWS V13.01,2013-08-27 22:28:00,
2013-08-27 17:33:00,92.0,68.9,30.01,NW,306,0.0,0.0,47,0.00,,,0.00,VWS V13.01,2013-08-27 22:33:00,
2013-08-27 17:38:00,92.3,69.2,30.01,WSW,238,0.0,0.0,47,0.00,,,0.00,VWS V13.01,2013-08-27 22:38:00,
2013-08-27 17:43:00,93.2,70.0,30.01,WSW,240,0.0,0.0,47,0.00,,,0.00,VWS V13.01,2013-08-27 22:43:00,
2013-08-27 17:48:00,93.6,70.3,30.01,South,181,0.0,0.0,47,0.00,,,0.00,VWS V13.01,2013-08-27 22:48:00,
2013-08-27 17:53:00,92.5,69.4,30.01,ESE,118,3.1,4.9,47,0.00,,,0.00,VWS V13.01,2013-08-27 22:53:00,
2013-08-27 17:58:00,91.3,68.8,30.01,NE,51,2.7,2.7,48,0.00,,,0.00,VWS V13.01,2013-08-27 22:58:00,
2013-08-27 18:03:00,91.1,68.7,30.01,NE,46,2.2,2.2,48,0.00,,,0.00,VWS V13.01,2013-08-27 23:03:00,
2013-08-27 18:08:00,90.9,69.1,30.01,NE,52,0.0,2.2,49,0.00,,,0.00,VWS V13.01,2013-08-27 23:08:00,
2013-08-27 18:13:00,90.9,68.5,30.01,NE,52,0.0,0.0,48,0.00,,,0.00,VWS V13.01,2013-08-27 23:13:00,
2013-08-27 18:18:00,91.1,68.7,29.98,NE,52,0.0,2.2,48,0.00,,,0.00,VWS V13.01,2013-08-27 23:18:00,
2013-08-27 18:23:00,91.3,69.4,29.98,NE,52,0.0,0.0,49,0.00,,,0.00,VWS V13.01,2013-08-27 23:23:00,
2013-08-27 18:28:00,90.9,68.5,29.98,NE,53,0.0,0.0,48,0.00,,,0.00,VWS V13.01,2013-08-27 23:28:00,
2013-08-27 18:33:00,90.7,69.5,29.98,NE,53,0.0,0.0,50,0.00,,,0.00,VWS V13.01,2013-08-27 23:33:00,
2013-08-27 18:38:00,91.3,71.8,29.98,NE,53,0.0,0.0,53,0.00,,,0.00,VWS V13.01,2013-08-27 23:38:00,
2013-08-27 18:43:00,91.4,71.3,29.98,NE,53,0.0,0.0,52,0.00,,,0.00,VWS V13.01,2013-08-27 23:43:00,
2013-08-27 18:48:00,91.8,71.7,29.98,NE,53,0.0,0.0,52,0.00,,,0.00,VWS V13.01,2013-08-27 23:48:00,
2013-08-27 18:52:00,92.0,71.8,29.98,NE,53,0.0,0.0,52,0.00,,,0.00,VWS V13.01,2013-08-27 23:52:00,
2013-08-27 18:57:00,91.6,70.4,29.98,WNW,301,0.0,0.0,50,0.00,,,0.00,VWS V13.01,2013-08-27 23:57:00,
2013-08-27 19:02:00,91.3,72.3,29.98,WNW,301,0.0,0.0,54,0.00,,,0.00,VWS V13.01,2013-08-28 00:02:00,
2013-08-27 19:07:00,90.2,71.8,29.98,WNW,301,0.0,0.0,55,0.00,,,0.00,VWS V13.01,2013-08-28 00:07:00,
2013-08-27 19:13:00,88.7,71.6,29.98,WNW,301,0.0,0.0,57,0.00,,,0.00,VWS V13.01,2013-08-28 00:13:00,
2013-08-27 19:18:00,87.8,70.7,29.98,WNW,301,0.0,0.0,57,0.00,,,0.00,VWS V13.01,2013-08-28 00:18:00,
2013-08-27 19:23:00,87.5,70.4,29.98,WNW,301,0.0,0.0,57,0.00,,,0.00,VWS V13.01,2013-08-28 00:23:00,
2013-08-27 19:28:00,87.3,70.7,29.98,WNW,301,0.0,0.0,58,0.00,,,0.00,VWS V13.01,2013-08-28 00:28:00,
2013-08-27 19:33:00,86.8,70.2,29.98,WNW,301,0.0,0.0,58,0.00,,,0.00,VWS V13.01,2013-08-28 00:33:00,
2013-08-27 19:38:00,86.4,70.4,29.98,WNW,301,0.0,0.0,59,0.00,,,0.00,VWS V13.01,2013-08-28 00:38:00,
2013-08-27 19:43:00,85.7,69.7,29.98,WNW,301,0.0,0.0,59,0.00,,,0.00,VWS V13.01,2013-08-28 00:43:00,
2013-08-27 19:48:00,85.0,69.5,29.98,WNW,301,0.0,0.0,60,0.00,,,0.00,VWS V13.01,2013-08-28 00:48:00,
2013-08-27 19:53:00,84.2,69.8,29.98,WNW,301,0.0,0.0,62,0.00,,,0.00,VWS V13.01,2013-08-28 00:53:00,
2013-08-27 19:58:00,83.5,70.1,29.98,NW,320,0.0,0.0,64,0.00,,,0.00,VWS V13.01,2013-08-28 00:58:00,
2013-08-27 20:03:00,83.2,70.2,29.98,NW,320,0.0,0.0,65,0.00,,,0.00,VWS V13.01,2013-08-28 01:03:00,
2013-08-27 20:08:00,83.0,70.9,29.98,NW,320,0.0,0.0,67,0.00,,,0.00,VWS V13.01,2013-08-28 01:08:00,
2013-08-27 20:12:00,82.4,70.8,29.98,NW,320,0.0,0.0,68,0.00,,,0.00,VWS V13.01,2013-08-28 01:12:00,
2013-08-27 20:18:00,81.9,70.3,29.98,NW,320,0.0,0.0,68,0.00,,,0.00,VWS V13.01,2013-08-28 01:18:00,
2013-08-27 20:23:00,81.4,69.8,29.98,NW,320,0.0,0.0,68,0.00,,,0.00,VWS V13.01,2013-08-28 01:23:00,
2013-08-27 20:28:00,81.0,69.9,29.98,NW,320,0.0,0.0,69,0.00,,,0.00,VWS V13.01,2013-08-28 01:28:00,
2013-08-27 20:33:00,80.5,70.2,29.98,NW,320,0.0,0.0,71,0.00,,,0.00,VWS V13.01,2013-08-28 01:33:00,
2013-08-27 20:38:00,79.6,70.2,29.98,NW,320,0.0,0.0,73,0.00,,,0.00,VWS V13.01,2013-08-28 01:38:00,
2013-08-27 20:43:00,79.0,71.2,29.98,NW,320,0.0,0.0,77,0.00,,,0.00,VWS V13.01,2013-08-28 01:43:00,
2013-08-27 20:48:00,78.7,71.2,30.01,NNW,332,0.0,0.0,78,0.00,,,0.00,VWS V13.01,2013-08-28 01:48:00,
2013-08-27 20:53:00,78.5,70.7,30.01,NNW,332,0.0,0.0,77,0.00,,,0.00,VWS V13.01,2013-08-28 01:53:00,
2013-08-27 20:58:00,78.5,70.7,30.01,NNW,332,0.0,0.0,77,0.00,,,0.00,VWS V13.01,2013-08-28 01:58:00,
2013-08-27 21:03:00,78.3,70.9,30.01,NNW,332,0.0,0.0,78,0.00,,,0.00,VWS V13.01,2013-08-28 02:03:00,
2013-08-27 21:08:00,78.1,71.4,30.01,NNW,332,0.0,0.0,80,0.00,,,0.00,VWS V13.01,2013-08-28 02:08:00,
2013-08-27 21:13:00,77.8,71.8,30.01,NNW,332,0.0,0.0,82,0.00,,,0.00,VWS V13.01,2013-08-28 02:13:00,
2013-08-27 21:18:00,77.4,70.4,30.01,NNW,332,0.0,0.0,79,0.00,,,0.00,VWS V13.01,2013-08-28 02:18:00,
2013-08-27 21:23:00,77.4,71.5,30.01,North,10,0.0,0.0,82,0.00,,,0.00,VWS V13.01,2013-08-28 02:23:00,
2013-08-27 21:28:00,77.0,71.1,30.01,North,10,0.0,0.0,82,0.00,,,0.00,VWS V13.01,2013-08-28 02:28:00,
2013-08-27 21:33:00,76.7,70.8,30.01,North,10,0.0,0.0,82,0.00,,,0.00,VWS V13.01,2013-08-28 02:33:00,
2013-08-27 21:38:00,76.3,70.8,30.01,North,10,0.0,0.0,83,0.00,,,0.00,VWS V13.01,2013-08-28 02:38:00,
2013-08-27 21:43:00,76.1,71.0,30.01,North,10,0.0,0.0,84,0.00,,,0.00,VWS V13.01,2013-08-28 02:43:00,
2013-08-27 21:48:00,76.0,70.4,30.01,NNE,12,2.7,2.7,83,0.00,,,0.00,VWS V13.01,2013-08-28 02:48:00,
2013-08-27 21:53:00,76.0,70.1,30.01,NNE,31,0.0,2.7,82,0.00,,,0.00,VWS V13.01,2013-08-28 02:53:00,
2013-08-27 21:58:00,76.0,69.3,30.01,NNE,23,0.0,0.0,80,0.00,,,0.00,VWS V13.01,2013-08-28 02:58:00,
2013-08-27 22:03:00,76.1,69.5,30.01,NNE,23,0.0,0.0,80,0.00,,,0.00,VWS V13.01,2013-08-28 03:03:00,
2013-08-27 22:08:00,76.1,69.5,30.01,NNE,23,0.0,0.0,80,0.00,,,0.00,VWS V13.01,2013-08-28 03:08:00,
2013-08-27 22:13:00,76.1,69.2,30.01,NNE,23,0.0,0.0,79,0.00,,,0.00,VWS V13.01,2013-08-28 03:13:00,
2013-08-27 22:18:00,76.0,69.0,30.01,NNE,23,0.0,0.0,79,0.00,,,0.00,VWS V13.01,2013-08-28 03:18:00,
2013-08-27 22:23:00,75.4,68.8,30.01,NNE,23,0.0,0.0,80,0.00,,,0.00,VWS V13.01,2013-08-28 03:23:00,
2013-08-27 22:28:00,74.9,68.3,30.01,East,98,0.0,0.0,80,0.00,,,0.00,VWS V13.01,2013-08-28 03:28:00,
2013-08-27 22:33:00,74.7,69.9,30.01,East,98,0.0,0.0,85,0.00,,,0.00,VWS V13.01,2013-08-28 03:33:00,
2013-08-27 22:38:00,74.5,69.7,30.01,East,98,0.0,0.0,85,0.00,,,0.00,VWS V13.01,2013-08-28 03:38:00,
2013-08-27 22:43:00,74.7,69.9,30.01,East,98,0.0,0.0,85,0.00,,,0.00,VWS V13.01,2013-08-28 03:43:00,
2013-08-27 22:48:00,74.7,69.9,30.01,East,98,0.0,0.0,85,0.00,,,0.00,VWS V13.01,2013-08-28 03:48:00,
2013-08-27 22:53:00,74.7,69.9,30.01,NE,44,0.0,0.0,85,0.00,,,0.00,VWS V13.01,2013-08-28 03:53:00,
2013-08-27 22:58:00,74.5,69.7,30.01,NE,44,0.0,0.0,85,0.00,,,0.00,VWS V13.01,2013-08-28 03:58:00,
2013-08-27 23:01:00,74.5,69.7,30.01,NE,44,0.0,0.0,85,0.00,,,0.00,VWS V13.01,2013-08-28 04:01:00,
2013-08-27 23:06:00,74.2,69.7,30.01,NE,44,0.0,0.0,86,0.00,,,0.00,VWS V13.01,2013-08-28 04:06:00,
2013-08-27 23:11:00,74.0,69.9,30.01,NE,44,0.0,0.0,87,0.00,,,0.00,VWS V13.01,2013-08-28 04:11:00,
2013-08-27 23:15:00,73.8,70.0,30.01,NE,44,0.0,0.0,88,0.00,,,0.00,VWS V13.01,2013-08-28 04:15:00,
2013-08-27 23:19:00,73.6,70.2,30.01,NE,44,0.0,0.0,89,0.00,,,0.00,VWS V13.01,2013-08-28 04:19:00,
2013-08-27 23:24:00,73.4,69.7,30.01,NE,44,0.0,0.0,88,0.00,,,0.00,VWS V13.01,2013-08-28 04:24:00,
2013-08-27 23:29:00,73.3,69.5,30.01,NE,44,0.0,0.0,88,0.00,,,0.00,VWS V13.01,2013-08-28 04:29:00,
2013-08-27 23:34:00,73.1,69.3,30.01,NE,44,0.0,0.0,88,0.00,,,0.00,VWS V13.01,2013-08-28 04:34:00,
2013-08-27 23:39:00,72.7,69.3,30.01,NE,44,0.0,0.0,89,0.00,,,0.00,VWS V13.01,2013-08-28 04:39:00,
2013-08-27 23:44:00,72.5,70.1,30.01,NE,44,0.0,0.0,92,0.00,,,0.00,VWS V13.01,2013-08-28 04:44:00,
2013-08-27 23:49:00,72.4,69.9,30.01,NE,44,0.0,0.0,92,0.00,,,0.00,VWS V13.01,2013-08-28 04:49:00,
2013-08-27 23:54:00,72.4,70.2,30.01,NE,44,0.0,0.0,93,0.00,,,0.00,VWS V13.01,2013-08-28 04:54:00,
2013-08-27 23:59:00,72.4,69.9,30.01,NE,44,0.0,0.0,92,0.00,,,0.00,VWS V13.01,2013-08-28 04:59:00,